Location: Greenwich
(51.4790°N, 0.0090°E)
Time: 04:11:00
(UTC+01:00)

Transit 4A - Visible Passes

Search period start: 22 April 2024 00:00
Search period end: 02 May 2024 00:00
Orbit: 871 x 972 km, 66.8° (Epoch: 21 April)

Date Brightness Start Highest point End Pass type
(mag) Time Alt. Az. Time Alt. Az. Time Alt. Az.
22 Apr 8.0 21:50:31 10° NW 21:56:18 67° WSW 22:00:26 20° SSE visible
22 Apr 10.0 23:38:54 10° WNW 23:41:33 13° WSW 23:43:57 11° SW visible
23 Apr 8.4 21:59:41 10° NW 22:05:15 48° WSW 22:09:33 17° S visible
24 Apr 9.0 22:08:56 10° NW 22:14:09 35° WSW 22:18:42 13° S visible
25 Apr 9.5 22:18:20 10° WNW 22:22:58 25° WSW 22:27:38 10° SSW visible
26 Apr 9.9 22:28:01 10° WNW 22:31:44 18° WSW 22:35:27 10° SW visible
27 Apr 8.3 20:49:30 10° NW 20:55:15 61° WSW 21:01:01 10° SSE visible
27 Apr 10.2 22:38:25 10° W 22:40:25 12° W 22:42:24 10° WSW visible
28 Apr 8.8 20:58:41 10° NW 21:04:10 44° WSW 21:09:42 10° S visible
29 Apr 9.4 21:07:58 10° NW 21:13:03 32° WSW 21:18:09 10° S visible
30 Apr 9.9 21:17:26 10° WNW 21:21:50 23° WSW 21:26:17 10° SSW visible
01 May 10.2 21:27:15 10° WNW 21:30:34 16° WSW 21:33:55 10° SW visible
